Weather History for Detroit, MI

Change the Weather History Date:

Sunday, February 2, 2014

  Actual Average Record
Temperature  
Mean Temperature 24 °F -  
Max Temperature 30 °F 32 °F 52 °F (1968)
Min Temperature 19 °F 18 °F -5 °F (1961)
Degree Days  
Heating Degree Days 40    
Moisture  
Dew Point 18 °F    
Average Humidity 74    
Maximum Humidity 86    
Minimum Humidity 60    
Precipitation  
Precipitation 0.00 in - - ()
Sea Level Pressure  
Sea Level Pressure 30.13 in    
Wind  
Wind Speed 5 mph (NW)    
Max Wind Speed 10 mph    
Max Gust Speed -    
Visibility 10 miles    
Events      
Averages and records for this station are not official NWS values.
T = Trace of Precipitation, MM = Missing Value Source: NWS Daily Summary

Daily Weather History Graph

Daily Weather History Graph

Search for Another Location

Airport:

Trip Planner

Search our weather history database for the weather conditions in past years. The results will help you decide how hot, cold, wet, or windy it might be!

Date:

Astronomy

Feb. 02, 2014 Rise Set
Actual Time 7:44 AM EST 5:47 PM EST
Civil Twilight 7:14 AM EST 6:17 PM EST
Nautical Twilight 6:41 AM EST 6:50 PM EST
Astronomical Twilight 6:08 AM EST 7:23 PM EST
Moon 9:05 AM EST (2/2) 9:35 PM EST (2/2)
Length of Visible Light 11h 02m
Length of Day
10h 02m
Waxing Crescent, 11% of the Moon is Illuminated
Feb 2
Waxing Crescent
Feb 6
First Quarter
Feb 14
Full
Feb 22
Last Quarter
Mar 1
New

Hourly Weather History & Observations

Time (EST) Temp. Windchill Dew Point Humidity Pressure Visibility Wind Dir Wind Speed Gust Speed Precip Events Conditions
12:24 AM 30.2 °F 23.4 °F 24.8 °F 80% 29.95 in 8.0 mi NNW 6.9 mph - 0.00 in   Overcast
12:49 AM 28.4 °F 22.2 °F 23.0 °F 80% 29.96 in 10.0 mi NNW 5.8 mph - 0.00 in   Scattered Clouds
12:53 AM 28.9 °F 23.9 °F 23.0 °F 78% 29.99 in 10.0 mi NNW 4.6 mph - 0.00 in   Partly Cloudy
1:44 AM 28.4 °F 24.6 °F 24.8 °F 86% 29.97 in 8.0 mi NNW 3.5 mph - N/A   Mostly Cloudy
1:53 AM 28.9 °F 25.2 °F 24.1 °F 82% 29.99 in 9.0 mi NNW 3.5 mph - N/A   Mostly Cloudy
2:53 AM 27.0 °F 21.6 °F 21.9 °F 81% 30.03 in 10.0 mi NW 4.6 mph - N/A   Overcast
3:53 AM 26.1 °F 19.4 °F 21.0 °F 81% 30.04 in 10.0 mi NNW 5.8 mph - N/A   Overcast
4:25 AM 26.6 °F 20.0 °F 19.4 °F 74% 30.04 in 10.0 mi NW 5.8 mph - N/A   Overcast
4:44 AM 24.8 °F 16.9 °F 19.4 °F 80% 30.03 in 10.0 mi NW 6.9 mph - N/A   Overcast
4:53 AM 25.0 °F 18.1 °F 19.9 °F 81% 30.06 in 10.0 mi NNW 5.8 mph - N/A   Overcast
5:41 AM 24.8 °F 17.9 °F 19.4 °F 80% 30.05 in 10.0 mi NNW 5.8 mph - N/A   Overcast
5:53 AM 25.0 °F - 19.9 °F 81% 30.08 in 10.0 mi Calm Calm - N/A   Overcast
6:15 AM 24.8 °F 19.1 °F 19.4 °F 80% 30.05 in 10.0 mi NNW 4.6 mph - N/A   Overcast
6:35 AM 24.8 °F 19.1 °F 19.4 °F 80% 30.05 in 10.0 mi NNW 4.6 mph - N/A   Overcast
6:53 AM 25.0 °F 18.1 °F 19.9 °F 81% 30.09 in 10.0 mi NW 5.8 mph - N/A   Overcast
7:53 AM 25.0 °F 18.1 °F 19.0 °F 78% 30.10 in 10.0 mi NNW 5.8 mph - N/A   Overcast
8:19 AM 24.8 °F 20.5 °F 19.4 °F 80% 30.09 in 10.0 mi NNW 3.5 mph - N/A   Mostly Cloudy
8:53 AM 25.0 °F 17.1 °F 19.0 °F 78% 30.13 in 10.0 mi WNW 6.9 mph - N/A   Overcast
9:53 AM 25.0 °F 18.1 °F 18.0 °F 75% 30.14 in 10.0 mi NW 5.8 mph - N/A   Overcast
10:53 AM 24.1 °F 18.2 °F 17.1 °F 75% 30.17 in 10.0 mi NW 4.6 mph - N/A   Overcast
11:53 AM 25.0 °F 17.1 °F 18.0 °F 75% 30.19 in 10.0 mi West 6.9 mph - N/A   Overcast
12:30 PM 24.8 °F 17.9 °F 17.6 °F 74% 30.15 in 10.0 mi WNW 5.8 mph - N/A   Overcast
12:53 PM 26.1 °F 17.6 °F 18.0 °F 71% 30.18 in 10.0 mi WNW 8.1 mph - N/A   Overcast
1:53 PM 27.0 °F 17.3 °F 18.0 °F 69% 30.16 in 10.0 mi WNW 10.4 mph - N/A   Overcast
2:53 PM 27.0 °F 18.7 °F 17.1 °F 66% 30.17 in 10.0 mi NW 8.1 mph - N/A   Overcast
3:53 PM 26.1 °F 16.8 °F 15.1 °F 63% 30.19 in 10.0 mi NW 9.2 mph - N/A   Overcast
4:53 PM 26.1 °F 18.4 °F 15.1 °F 63% 30.22 in 10.0 mi NNW 6.9 mph - N/A   Mostly Cloudy
5:09 PM 24.8 °F 16.9 °F 14.0 °F 64% 30.21 in 10.0 mi NW 6.9 mph - N/A   Scattered Clouds
5:53 PM 25.0 °F 19.3 °F 12.9 °F 60% 30.26 in 10.0 mi NW 4.6 mph - N/A   Clear
6:53 PM 24.1 °F - 12.9 °F 62% 30.27 in 10.0 mi Calm Calm - N/A   Scattered Clouds
7:53 PM 19.0 °F - 12.0 °F 74% 30.27 in 10.0 mi Calm Calm - N/A   Scattered Clouds
8:53 PM 21.9 °F 17.2 °F 12.9 °F 68% 30.27 in 10.0 mi NW 3.5 mph - N/A   Overcast
9:53 PM 23.0 °F - 14.0 °F 68% 30.27 in 10.0 mi Calm Calm - N/A   Overcast
10:53 PM 23.0 °F - 14.0 °F 68% 30.28 in 10.0 mi Calm Calm - N/A   Scattered Clouds
11:53 PM 19.9 °F 13.4 °F 12.0 °F 71% 30.28 in 10.0 mi North 4.6 mph - N/A   Clear